Back to catalog

SL-16 DEB

AliveLEO
NORAD 23089·DEBRIS·🇷🇺 Russia

Launched Apr 23, 1994 from Baikonur Cosmodrome

Loading…

Next Passes (next 24 hours)

TLE

FreshSource: Space-Track

Epoch: Sep 14, 2026, 10:22 UTC

1 23089U 94023C   26257.43248519  .00000039  00000-0  74888-4 0  9999
2 23089  71.0206 267.8177 0198237 193.2499 166.3355 13.74307053623918

Track SL-16 DEB in real time with AllMySat

Download on the App Store